DW5444 Weather Reports


time (UTC)temp
F
wind
direction
speed
knots
gust
knots
rain 1hr
in
rain 24hr
in
rain mn
in
humidity
%
barometer
mb
20260502123025 51 73 3.5 4.3 0.00 0.00 0.00 65 1011.9
20260502121524 52 76 0.9 2.6 0.00 0.00 0.00 63 1011.9
20260502114523 53 88 0.0 1.7 0.00 0.00 0.00 62 1011.9
20260502113026 50 77 2.6 3.5 0.00 0.00 0.00 70 1011.8
20260502111521 49 76 2.6 3.5 0.00 0.00 0.00 71 1011.8
20260502110020 49 86 3.5 3.5 0.00 0.00 0.00 74 1011.8
20260502104522 49 85 2.6 3.5 0.00 0.00 0.00 72 1011.9
20260502103017 50 72 0.9 1.7 0.00 0.00 0.00 71 1012.1
20260502101530 51 92 0.9 1.7 0.00 0.00 0.00 68 1012.0
20260502091502 54 82 2.6 3.5 0.00 0.00 0.00 58 1011.7
20260502080107 54 67 1.7 3.5 0.00 0.00 0.00 59 1012.0
20260502070058 56 78 2.6 3.5 0.00 0.00 0.00 58 1012.2
20260502064550 58 47 0.9 2.6 0.00 0.00 0.00 55 1012.1
20260502063055 59 185 0.0 3.5 0.00 0.00 0.00 52 1012.0
20260502061647 60 46 1.7 3.5 0.00 0.00 0.00 51 1011.9
20260502060044 59 59 1.7 3.5 0.00 0.00 0.00 54 1011.9
20260502054544 60 48 2.6 4.3 0.00 0.00 0.00 54 1011.8
20260502053044 59 48 2.6 4.3 0.00 0.00 0.00 56 1011.8
20260502051601 59 47 0.9 3.5 0.00 0.00 0.00 57 1011.8
20260502050041 60 43 3.5 6.1 0.00 0.00 0.00 55 1011.8
20260502044540 60 50 3.5 6.1 0.00 0.00 0.00 54 1011.8
20260502043040 60 12 3.5 7.0 0.00 0.00 0.00 51 1011.9
20260502041541 62 52 4.3 8.7 0.00 0.00 0.00 49 1011.9
20260502040050 61 63 4.3 9.6 0.00 0.00 0.00 51 1011.9
20260502034538 61 43 2.6 5.2 0.00 0.00 0.00 53 1011.9
20260502033041 61 66 2.6 6.1 0.00 0.00 0.00 52 1011.9
20260502031539 63 47 4.3 7.0 0.00 0.00 0.00 51 1011.8
20260502030036 64 48 6.1 8.7 0.00 0.00 0.00 50 1011.7
20260502024538 65 79 6.1 8.7 0.00 0.00 0.00 49 1011.7
20260502023136 66 65 6.1 9.6 0.00 0.00 0.00 49 1011.7
20260502021533 67 62 4.3 7.8 0.00 0.00 0.00 47 1011.7
20260502020037 69 48 4.3 7.0 0.00 0.00 0.00 45 1012.0
20260502014530 70 54 4.3 7.0 0.00 0.00 0.00 42 1012.1
20260502013042 70 59 3.5 8.7 0.00 0.00 0.00 43 1012.3
20260502011527 71 58 3.5 7.0 0.00 0.00 0.00 43 1012.4
20260502010025 71 28 2.6 7.0 0.00 0.00 0.00 44 1012.6
20260502004524 71 43 2.6 5.2 0.00 0.00 0.00 42 1012.6
20260502003023 71 313 2.6 6.1 0.00 0.00 0.00 43 1012.8
20260502001523 71 54 3.5 7.0 0.00 0.00 0.00 40 1012.9
20260502000021 72 54 4.3 7.0 0.00 0.00 0.00 38 1012.9
20260501234519 72 59 4.3 7.8 0.00 0.00 0.00 39 1013.0
20260501233022 72 42 6.1 10.4 0.00 0.00 0.00 37 1013.1
20260501231516 72 58 5.2 9.6 0.00 0.00 0.00 39 1013.1
20260501230018 72 55 6.1 10.4 0.00 0.00 0.00 39 1013.4
20260501224513 73 83 5.2 12.2 0.00 0.00 0.00 36 1013.5
20260501223011 72 31 5.2 10.4 0.00 0.00 0.00 38 1013.8
20260501221509 72 34 6.1 8.7 0.00 0.00 0.00 37 1014.1
20260501220007 73 52 4.3 7.8 0.00 0.00 0.00 37 1014.3
20260501214504 72 48 2.6 7.8 0.00 0.00 0.00 39 1014.4
20260501213002 72 9 2.6 7.0 0.00 0.00 0.00 41 1014.7
20260501211501 72 47 4.3 7.8 0.00 0.00 0.00 39 1014.7
20260501210118 71 48 3.5 8.7 0.00 0.00 0.00 42 1015.0
20260501204559 70 270 3.5 11.3 0.00 0.00 0.00 44 1015.2
20260501203101 70 311 6.1 12.2 0.00 0.00 0.00 44 1015.2
20260501201557 70 337 3.5 8.7 0.00 0.00 0.00 45 1015.4
20260501200052 70 270 3.5 9.6 0.00 0.00 0.00 46 1015.4
20260501194551 70 323 4.3 10.4 0.00 0.00 0.00 47 1015.5
20260501193050 70 299 2.6 7.0 0.00 0.00 0.00 46 1015.5
20260501191556 70 42 3.5 7.8 0.00 0.00 0.00 45 1015.7
20260501190049 69 142 3.5 7.0 0.00 0.00 0.00 44 1015.7
20260501184542 69 322 3.5 7.8 0.00 0.00 0.00 46 1015.8
20260501183056 69 313 3.5 7.8 0.00 0.00 0.00 47 1015.9
20260501181558 69 322 2.6 6.1 0.00 0.00 0.00 46 1016.0
20260501180039 69 333 2.6 7.0 0.00 0.00 0.00 44 1016.1
20260501174538 69 331 3.5 7.8 0.00 0.00 0.00 46 1016.1
20260501173044 69 322 0.9 4.3 0.00 0.00 0.00 45 1016.2
20260501171534 68 23 0.9 2.6 0.00 0.00 0.00 46 1016.3
20260501170031 67 313 1.7 6.1 0.00 0.00 0.00 46 1016.4
20260501164541 66 326 0.9 4.3 0.00 0.00 0.00 46 1016.5
20260501163039 65 284 2.6 3.5 0.00 0.00 0.00 48 1016.6
20260501161529 65 269 0.9 3.5 0.00 0.00 0.00 41 1016.7
20260501160045 64 272 1.7 3.5 0.00 0.00 0.00 55 1016.8
20260501154526 64 272 1.7 5.2 0.00 0.00 0.00 55 1016.9
20260501153028 66 265 0.9 1.7 0.00 0.00 0.00 41 1016.8
20260501151523 66 147 0.0 1.7 0.00 0.00 0.00 41 1016.8
20260501150026 67 85 0.0 0.9 0.00 0.00 0.00 42 1016.8
20260501144525 65 85 0.0 0.9 0.00 0.00 0.00 43 1016.8
20260501143014 61 85 0.0 0.9 0.00 0.00 0.00 59 1016.8